TimeCST,TemperatureF,Dew PointF,Humidity,Sea Level PressureIn,VisibilityMPH,Wind Direction,Wind SpeedMPH,Gust SpeedMPH,PrecipitationIn,Events,Conditions,WindDirDegrees,DateUTC
12:13 AM,1.4,-5.8,72,30.03,10.0,NW,9.2,-,N/A,,Clear,310,2014-01-31 06:13:00
12:32 AM,1.4,-5.8,72,30.05,10.0,WNW,9.2,-,N/A,,Clear,300,2014-01-31 06:32:00
12:53 AM,1.4,-5.8,72,30.05,10.0,WNW,8.1,-,N/A,,Clear,290,2014-01-31 06:53:00
1:13 AM,1.4,-5.8,72,30.06,10.0,West,5.8,-,N/A,,Clear,270,2014-01-31 07:13:00
1:32 AM,1.4,-5.8,72,30.06,10.0,West,6.9,-,N/A,,Clear,270,2014-01-31 07:32:00
1:53 AM,1.4,-5.8,72,30.06,10.0,West,5.8,-,N/A,,Clear,270,2014-01-31 07:53:00
2:12 AM,1.4,-5.8,72,30.05,10.0,West,4.6,-,N/A,,Clear,270,2014-01-31 08:12:00
2:33 AM,1.4,-5.8,72,30.04,10.0,West,6.9,-,N/A,,Clear,280,2014-01-31 08:33:00
2:53 AM,1.4,-5.8,72,30.04,10.0,WNW,8.1,-,N/A,,Clear,300,2014-01-31 08:53:00
3:12 AM,1.4,-5.8,72,30.04,10.0,NW,11.5,-,N/A,,Clear,310,2014-01-31 09:12:00
3:33 AM,3.2,-5.8,66,30.03,10.0,NW,11.5,-,N/A,,Clear,310,2014-01-31 09:33:00
3:52 AM,3.2,-5.8,66,30.03,10.0,NW,12.7,-,N/A,,Clear,320,2014-01-31 09:52:00
4:13 AM,3.2,-5.8,66,30.03,10.0,NW,10.4,-,N/A,,Clear,320,2014-01-31 10:13:00
4:33 AM,3.2,-5.8,66,30.03,10.0,NW,11.5,-,N/A,,Clear,320,2014-01-31 10:33:00
4:53 AM,1.4,-5.8,72,30.03,10.0,NW,10.4,-,N/A,,Clear,310,2014-01-31 10:53:00
5:12 AM,1.4,-5.8,72,30.04,10.0,NW,8.1,-,N/A,,Clear,310,2014-01-31 11:12:00
5:33 AM,1.4,-7.6,66,30.05,10.0,WNW,8.1,-,N/A,,Clear,300,2014-01-31 11:33:00
5:53 AM,1.4,-7.6,66,30.06,10.0,WNW,5.8,-,N/A,,Clear,290,2014-01-31 11:53:00
6:12 AM,1.4,-7.6,66,30.05,10.0,NW,6.9,-,N/A,,Clear,310,2014-01-31 12:12:00
6:33 AM,1.4,-7.6,66,30.05,10.0,WNW,5.8,-,N/A,,Clear,300,2014-01-31 12:33:00
6:53 AM,1.4,-7.6,66,30.06,10.0,West,3.5,-,N/A,,Clear,270,2014-01-31 12:53:00
7:12 AM,1.4,-7.6,66,30.06,10.0,Calm,Calm,-,N/A,,Clear,0,2014-01-31 13:12:00
7:33 AM,1.4,-7.6,66,30.06,10.0,Calm,Calm,-,N/A,,Clear,0,2014-01-31 13:33:00
7:52 AM,1.4,-7.6,66,30.07,10.0,SW,3.5,-,N/A,,Clear,220,2014-01-31 13:52:00
8:13 AM,1.4,-7.6,66,30.08,10.0,SSW,4.6,-,N/A,,Clear,210,2014-01-31 14:13:00
8:33 AM,1.4,-7.6,66,30.10,10.0,SW,5.8,-,N/A,,Clear,220,2014-01-31 14:33:00
8:52 AM,1.4,-5.8,72,30.10,10.0,SW,6.9,-,N/A,,Clear,220,2014-01-31 14:52:00
9:13 AM,1.4,-7.6,66,30.10,10.0,SSW,4.6,-,N/A,,Clear,210,2014-01-31 15:13:00
9:33 AM,3.2,-5.8,66,30.10,10.0,SW,6.9,-,N/A,,Clear,220,2014-01-31 15:33:00
9:52 AM,3.2,-5.8,66,30.11,10.0,SSW,8.1,-,N/A,,Clear,210,2014-01-31 15:52:00
10:13 AM,3.2,-5.8,66,30.10,10.0,SW,8.1,-,N/A,,Clear,220,2014-01-31 16:13:00
10:33 AM,5.0,-5.8,61,30.11,10.0,SW,6.9,-,N/A,,Clear,220,2014-01-31 16:33:00
10:52 AM,5.0,-4.0,66,30.11,10.0,SW,9.2,-,N/A,,Clear,230,2014-01-31 16:52:00
11:13 AM,6.8,-4.0,61,30.11,10.0,SSW,9.2,-,N/A,,Clear,210,2014-01-31 17:13:00
11:32 AM,8.6,-4.0,57,30.10,10.0,SW,9.2,-,N/A,,Clear,220,2014-01-31 17:32:00
11:53 AM,8.6,-2.2,62,30.09,10.0,SW,10.4,-,N/A,,Clear,230,2014-01-31 17:53:00
12:13 PM,10.4,-2.2,57,30.08,10.0,SW,11.5,-,N/A,,Clear,220,2014-01-31 18:13:00
12:32 PM,10.4,-0.4,62,30.07,10.0,SW,9.2,-,N/A,,Clear,220,2014-01-31 18:32:00
12:53 PM,10.4,-0.4,62,30.07,10.0,South,10.4,-,N/A,,Clear,190,2014-01-31 18:53:00
1:13 PM,12.2,1.4,62,30.05,10.0,SSW,10.4,-,N/A,,Clear,200,2014-01-31 19:13:00
1:32 PM,12.2,1.4,62,30.04,10.0,SSW,10.4,-,N/A,,Clear,200,2014-01-31 19:32:00
1:53 PM,12.2,1.4,62,30.03,10.0,SSW,10.4,-,N/A,,Clear,200,2014-01-31 19:53:00
2:12 PM,12.2,1.4,62,30.02,10.0,SSW,10.4,-,N/A,,Clear,210,2014-01-31 20:12:00
2:33 PM,12.2,3.2,67,30.02,10.0,SSW,9.2,-,N/A,,Clear,200,2014-01-31 20:33:00
2:53 PM,14.0,3.2,62,30.01,10.0,South,11.5,-,N/A,,Clear,190,2014-01-31 20:53:00
3:12 PM,14.0,3.2,62,30.01,10.0,SSW,11.5,-,N/A,,Clear,200,2014-01-31 21:12:00
3:33 PM,12.2,3.2,67,30.01,10.0,SSW,12.7,-,N/A,,Clear,200,2014-01-31 21:33:00
3:53 PM,14.0,3.2,62,30.01,10.0,SSW,12.7,-,N/A,,Clear,200,2014-01-31 21:53:00
4:12 PM,14.0,3.2,62,29.99,10.0,SSW,10.4,-,N/A,,Clear,200,2014-01-31 22:12:00
4:33 PM,12.2,3.2,67,29.99,10.0,SSW,10.4,-,N/A,,Clear,210,2014-01-31 22:33:00
4:53 PM,12.2,3.2,67,29.99,10.0,South,9.2,-,N/A,,Clear,190,2014-01-31 22:53:00
5:12 PM,12.2,3.2,67,29.99,10.0,South,8.1,-,N/A,,Clear,190,2014-01-31 23:12:00
5:33 PM,10.4,1.4,67,29.98,10.0,South,8.1,-,N/A,,Clear,190,2014-01-31 23:33:00
5:53 PM,10.4,1.4,67,29.97,10.0,South,6.9,-,N/A,,Clear,180,2014-01-31 23:53:00
6:12 PM,10.4,1.4,67,29.97,10.0,South,6.9,-,N/A,,Clear,180,2014-02-01 00:12:00
6:33 PM,10.4,1.4,67,29.97,10.0,South,6.9,-,N/A,,Clear,180,2014-02-01 00:33:00
6:53 PM,8.6,1.4,73,29.97,10.0,South,11.5,-,N/A,,Clear,190,2014-02-01 00:53:00
7:12 PM,8.6,1.4,73,29.97,10.0,South,10.4,-,N/A,,Clear,190,2014-02-01 01:12:00
7:33 PM,8.6,1.4,73,29.97,10.0,South,11.5,-,N/A,,Clear,190,2014-02-01 01:33:00
7:53 PM,8.6,1.4,73,29.96,10.0,South,10.4,-,N/A,,Clear,190,2014-02-01 01:53:00
8:12 PM,8.6,1.4,73,29.96,10.0,South,10.4,-,N/A,,Clear,190,2014-02-01 02:12:00
8:33 PM,8.6,1.4,73,29.95,10.0,South,6.9,-,N/A,,Clear,190,2014-02-01 02:33:00
8:53 PM,8.6,1.4,73,29.95,10.0,South,9.2,-,N/A,,Clear,190,2014-02-01 02:53:00
9:12 PM,8.6,1.4,73,29.96,10.0,South,10.4,-,N/A,,Clear,180,2014-02-01 03:12:00
9:33 PM,8.6,1.4,73,29.95,10.0,South,10.4,-,N/A,,Clear,180,2014-02-01 03:33:00
9:52 PM,10.4,3.2,73,29.96,10.0,South,12.7,-,N/A,,Clear,190,2014-02-01 03:52:00
10:13 PM,10.4,1.4,67,29.96,10.0,South,9.2,-,N/A,,Mostly Cloudy,190,2014-02-01 04:13:00
10:33 PM,8.6,1.4,73,29.96,10.0,South,10.4,-,N/A,,Overcast,190,2014-02-01 04:33:00
10:52 PM,10.4,3.2,73,29.95,10.0,South,11.5,-,N/A,,Mostly Cloudy,190,2014-02-01 04:52:00
11:13 PM,10.4,3.2,73,29.94,10.0,South,12.7,-,N/A,,Scattered Clouds,190,2014-02-01 05:13:00
11:33 PM,10.4,3.2,73,29.94,10.0,South,9.2,-,N/A,,Scattered Clouds,180,2014-02-01 05:33:00
11:52 PM,10.4,3.2,73,29.92,10.0,South,9.2,-,N/A,,Scattered Clouds,180,2014-02-01 05:52:00